Location: Prairie View Elementary School
(39.8322°N, 99.5698°W)
Time: 15:03:08
(UTC+00:00)

COSMO-SKYMED 1 - Pass Details

Date: 08 December 2019
Orbit: 621 x 623 km, 97.9° (Epoch: 27 January)

Event Time Altitude Azimuth Distance (km) Brightness Sun altitude
Exits shadow 00:40:47 10° 15° (NNE) 2,038 4.9 -16.3°
Reaches altitude 10° 00:40:52 10° 15° (NNE) 2,001 4.9 -16.3°
Maximum altitude 00:45:13 79° 101° (ESE) 640 2.4 -17.1°
Drops below altitude 10° 00:49:33 10° 189° (S) 1,985 5.5 -17.9°
Sets 00:51:44 0° 191° (S) 2,886 6.3 -18.3°
